sat.trackr.live / text

‹ back to catalog

KUIPER-00259

NORAD 67786 · 2026-030Y

PAYLOAD ACTIVE UNKNOWN

§ Identity

Operator
Country
US
Launch date
2026-02-12
Launch site
FRGUI
Launch vehicle
Mass (kg)
RCS (m²)

External: N2YO · Heavens-Above · Gunter

§ Orbital elements

Epoch: 2026-09-20T03:41:42.982944Z

Period
97.30 min
Inclination
51.8988°
Eccentricity
0.0000708
Mean motion
14.79927313 rev/d
Perigee alt
629.1 km
Apogee alt
630.0 km
Semi-major
7,007.7 km
B*
-8.6443e-5
RAAN
58.1826°
Arg perigee
112.8482°
Mean anomaly
247.2555°
Rev number
3,418

§ Raw data

KUIPER-002591 67786U 26030Y   26263.15396971 -.00000880  00000+0 -86443-4 0  99912 67786  51.8988  58.1826 0000708 112.8482 247.2555 14.79927313 34188

JSON: /api/v1/satellites/67786 · /tle

For live sub-satellite position, see the globe view (requires WebGL).

§ Visibility from observer

Set your observer location to see the next 7 days of passes ≥ 10°. The values pass through the URL so the page stays shareable.

No JS? Fill the form by hand. The geolocation button needs JavaScript.